Regional Weather Roundup
Issued by NWS

Home | Current Version | Previous Version | Graphics & Text | Print | Product List | Glossary On
Versions: 1 2 3 4 5 6 7 8 9 10 11 12 13 14 15 16 17 18 19 20 21 22 23 24 25 26 27 28 29 30 31 32 33 34 35 36 37 38 39 40 41 42 43 44 45 46 47 48 49 50
000
ASUS43 KLMK 281502
RWRKY
KENTUCKY REGIONAL WEATHER ROUNDUP
NATIONAL WEATHER SERVICE LOUISVILLE KY
1000 AM EST WED JAN 28 2015

NOTE "FAIR" INDICATES FEW OR NO CLOUDS BELOW 12,000 FEET
WITH NO SIGNIFICANT WEATHER AND/OR OBSTRUCTIONS TO VISIBILITY.

KYZ001>023-026-027-061>063-070>075-281600-
WESTERN AND SOUTH CENTRAL KENTUCKY

CITY           SKY/WX    TMP DP  RH WIND       PRES   REMARKS
PADUCAH        SUNNY     34  29  82 SE10      30.30S WCI  26
HENDERSON      SUNNY     30  21  69 SE9       30.34S WCI  22
OWENSBORO      SUNNY     30  19  63 S12       30.36S WCI  20
HOPKINSVILLE   MOSUNNY   34  25  71 E10       30.34R WCI  26
BOWLING GREEN  SUNNY     30  16  56 SE8       30.37R WCI  22
GLASGOW        NOT AVBL
$$

KYZ024-025-028>034-038-045-046-053-281600-
NORTH CENTRAL KENTUCKY

CITY           SKY/WX    TMP DP  RH WIND       PRES   REMARKS
LOUISVILLE/SDF MOSUNNY   26  15  63 SE9       30.38F WCI  17
LOUISVILLE/LOU SUNNY     25  14  63 E7        30.39S WCI  17
FORT KNOX      SUNNY     24  16  70 E12       30.34F WCI  13
$$

KYZ035>037-039>044-047>052-055>060-089>105-281600-
NORTHEAST KENTUCKY

CITY           SKY/WX    TMP DP  RH WIND       PRES   REMARKS
LEXINGTON      SUNNY     23  14  68 SE7       30.38R WCI  15
COVINGTON      MOSUNNY   23  16  74 S5        30.37R WCI  17
FRANKFORT      SUNNY     22  14  71 E8        30.38R WCI  12
$$

KYZ054-064>069-076>088-106>120-281600-
SOUTHEAST KENTUCKY

CITY           SKY/WX    TMP DP  RH WIND       PRES   REMARKS
JACKSON        SUNNY     20  13  74 CALM      30.34R
LONDON         SUNNY     23  12  62 VRB3      30.35R
SOMERSET       NOT AVBL
MIDDLESBORO    SUNNY     24  16  72 CALM      30.36S
MONTICELLO     SUNNY     26  17  68 CALM      30.39R
$$




USA.gov is the U.S. government's official web portal to all federal, state and local government web resources and services.